[[{"header":{"parameterUnit":"m.s-1","parameterCategory":1,"la1":30.2991,"la2":30.254,"lo1":-89.0895,"lo2":-89.0444,"dy":0.0017,"dx":0.0017,"nx":28,"ny":28,"refTime":"2025-08-02T09:00:00:Z","depth":0,"parameterNumber":2,"parameterNumberName":"U-component_of_WINDS"},"data":[0,0,0,0,0,0,0,0,0,0,0,0,0,0,0,0,0,0,0,0,0,0,0,0,0,0,0,0,0,0,0,0,0,0,0,0,0,0,0,0,0,0,0,0,0,0,0,0,0,0,0,0,0,0,0,0,0,0,0.044,0.0439,0,0.0348,0.0347,0.0346,0.0361,0.0362,0.0364,0.0366,0.0268,0.0264,0.026,0,0,0,0,0,0,0,0,0,0,0,0,0,0.0626,0.0622,0.044,0.0439,0.0438,0.0348,0.0347,0.0346,0.0361,0.0363,0.0364,0.0366,0.0269,0.0265,0.026,0,0,0,0,0,0,0,0,0,0,0,0,0,0.0541,0.0621,0.044,0.0435,0.0433,0.0349,0.0347,0.0345,0.036,0.0363,0.0365,0.0367,0.0271,0.0265,0.0259,0.0174,0,0,0.024,0.0238,0,0,0,0,0,0,0,0,0.0545,0.0534,0.0437,0.0435,0.0433,0.0369,0.0377,0.0288,0.036,0.0388,0.0366,0.0368,0.0299,0.0291,0.0268,0.0169,0.0165,0.024,0.0236,0.0234,0.0232,0,0,0,0,0,0,0,0.0551,0.0538,0.0404,0.0435,0.0433,0.0436,0.0426,0.036,0.0331,0.0385,0.0386,0.0375,0.0299,0.0274,0.0266,0.0163,0.024,0.0235,0.0231,0.0228,-0.0012,-0.0015,0,0,0,0,0,0,0.0559,0.0543,0.0407,0.0401,0.0496,0.043,0.042,0.0387,0.0332,0.0326,0.0374,0.0376,0.0284,0.0273,0.0263,0.0158,0.0234,0.0228,0.0224,-0.0009,-0.0013,-0.0016,0,0,0,0,0,0,0.0563,0.0547,0.041,0.0472,0.0455,0.0425,0.0387,0.0384,0.0359,0.0323,0.0318,0.0354,0.0285,0.0272,0.0196,0.0155,0.0225,0.022,-0.0006,-0.001,-0.0014,-0.0052,0,0,0,0,0,0,0.0569,0.0548,0.0516,0.0471,0.0451,0.0345,0.0385,0.038,0.0349,0.0352,0.0303,0.0297,0.0286,0.0205,0.019,0.0148,0.0215,-0.0003,-0.0008,-0.0013,-0.0047,-0.0057,-0.0065,0,0,0,0,0,0.0575,0.0509,0.0514,0.0498,0.0411,0.0343,0.0331,0.0321,0.0346,0.0312,0.0289,0.0299,0.0162,0.0197,0.018,0.0135,-0.0,-0.0007,-0.0012,-0.0043,-0.0055,-0.0065,0,0,0,0,0,0,0.0548,0.0503,0.0508,0.0426,0.0388,0.0346,0.0303,0.0309,0.0262,0.0267,0.0255,0.0244,0.0166,0.0144,0.0183,0.0049,0.0084,0.0075,0.0067,0.0055,0.0047,0.0053,0.021,0,0,0,0,0,0.0533,0.0483,0.0445,0.0376,0.0357,0.0333,0.0303,0.0299,0.0259,0.0242,0.0214,0.0174,0.0122,0.0088,0.0038,-0.005,-0.0061,-0.0089,-0.0097,-0.0104,-0.0114,-0.0163,-0.0176,-0.0036,-0.0036,-0.0036,0,0,0.05,0.0469,0.0438,0.037,0.034,0.0287,0.032,0.0262,0.0223,0.0233,0.016,0.0137,0.0092,0.001,-0.0028,-0.0012,-0.0154,-0.0112,-0.0118,-0.0123,-0.0171,-0.0184,-0.0196,-0.004,-0.0039,-0.0038,0,0,0.0414,0.0386,0.0324,0.0294,0.0249,0.0234,0.0219,0.0176,0.0162,0.0088,0.0095,0.0047,-0.0042,-0.0075,-0.0103,-0.0202,-0.0195,-0.0217,-0.0265,-0.0313,-0.0324,-0.0334,-0.0371,-0.0384,-0.0226,-0.0226,-0.0226,0,0.0378,0.03,0.0292,0.0233,0.0203,0.0212,0.0148,0.0119,0.006,0.0038,0.0058,-0.0054,-0.0084,-0.0174,-0.0198,-0.0221,-0.0239,-0.0213,-0.0321,-0.0331,-0.0341,-0.0376,-0.039,-0.0229,-0.0228,-0.0228,-0.0228,0,0.0257,0.0203,0.0159,0.0102,0.0066,0.0006,-0.0012,-0.0047,-0.0049,-0.0066,-0.0142,-0.0177,-0.0234,-0.0255,-0.0258,-0.0347,-0.0335,-0.0318,-0.0284,-0.0357,-0.039,-0.0404,-0.0232,-0.0231,-0.0231,-0.023,0,0,0.0149,0.009,0.0073,0.0047,-0.0001,-0.0044,-0.0104,-0.0159,-0.019,-0.023,-0.0282,-0.0357,-0.0342,-0.0374,-0.038,-0.0421,-0.0499,-0.0399,-0.0401,-0.0418,-0.0601,-0.0615,-0.0631,-0.0494,-0.0496,-0.0499,-0.0598,0,0.0056,-0.0049,-0.0058,-0.0153,-0.0205,-0.0197,-0.0249,-0.0285,-0.0303,-0.035,-0.0369,-0.0423,-0.0397,-0.0417,-0.0458,-0.0481,-0.0536,-0.0474,-0.0544,-0.0547,-0.0535,-0.0648,-0.0663,-0.0755,-0.0611,-0.0613,-0.0615,0,-0.0067,-0.0111,-0.0211,-0.0253,-0.0275,-0.0322,-0.0373,-0.0417,-0.0458,-0.0468,-0.0503,-0.0503,-0.0566,-0.0528,-0.0615,-0.0572,-0.0601,-0.0617,-0.0621,-0.063,-0.0587,-0.0662,-0.0785,-0.08,-0.0635,-0.0634,-0.0632,0,-0.0138,-0.0222,-0.0293,-0.0315,-0.0365,-0.0399,-0.0421,-0.0459,-0.0492,-0.0537,-0.0558,-0.061,-0.0639,-0.0679,-0.0694,-0.0664,-0.0781,-0.0743,-0.0793,-0.0793,-0.082,-0.0819,-0.0952,-0.0835,-0.0835,-0.0835,-0.0834,0,-0.0243,-0.0305,-0.0326,-0.037,-0.044,-0.0449,-0.0518,-0.0539,-0.0573,-0.0622,-0.0617,-0.0663,-0.0678,-0.0727,-0.0738,-0.081,-0.0823,-0.0834,-0.0837,-0.0836,-0.0835,-0.0857,-0.0852,-0.0838,-0.0838,-0.0837,-0.0836,0,-0.0335,-0.0351,-0.0429,-0.0469,-0.0481,-0.0531,-0.0566,-0.0609,-0.0625,-0.0687,-0.0702,-0.0728,-0.0785,-0.0802,-0.0871,-0.0879,-0.0964,-0.096,-0.095,-0.0951,-0.1,-0.0996,-0.1154,-0.1176,-0.1043,-0.1044,-0.1045,0,-0.0402,-0.0449,-0.0494,-0.0526,-0.055,-0.0601,-0.0634,-0.0645,-0.068,-0.0729,-0.0767,-0.0823,-0.0869,-0.0961,-0.0987,-0.104,-0.1038,-0.109,-0.1047,-0.1044,-0.1042,-0.104,-0.1045,-0.1099,-0.11,-0.1101,-0.1102,0,-0.0519,-0.0524,-0.0572,-0.0622,-0.0661,-0.0701,-0.074,-0.0767,-0.0783,-0.0822,-0.088,-0.0916,-0.0986,-0.1043,-0.1096,-0.112,-0.1115,-0.1115,-0.113,-0.1131,-0.1124,-0.113,-0.0975,-0.1112,-0.1111,-0.1111,-0.111,-0.111,-0.0602,-0.0644,-0.0683,-0.0736,-0.0766,-0.0802,-0.0845,-0.0865,-0.0914,-0.0971,-0.0974,-0.1038,-0.1078,-0.1149,-0.1176,-0.1226,-0.1212,-0.1232,-0.1238,-0.1244,-0.1249,-0.1114,-0.1236,-0.1236,-0.1235,-0.1235,-0.1235,0,-0.0721,-0.0745,-0.0793,-0.0847,-0.0889,-0.0878,-0.092,-0.0957,-0.1012,-0.1049,-0.1094,-0.1161,-0.1216,-0.1245,-0.13,-0.1335,-0.1334,-0.1349,-0.1348,-0.1354,-0.1258,-0.124,-0.1349,-0.1349,-0.1349,-0.1349,-0.1349,-0.1349,-0.0788,-0.0859,-0.0869,-0.0956,-0.0979,-0.1041,-0.1066,-0.11,-0.113,-0.1205,-0.125,-0.1268,-0.1302,-0.1359,-0.1409,-0.1417,-0.1438,-0.1456,-0.1462,-0.1372,-0.136,-0.1349,-0.1333,-0.1459,-0.146,-0.1554,-0.1555,-0.1555]},{"header":{"parameterUnit":"m.s-1","parameterCategory":1,"la1":30.2991,"la2":30.254,"lo1":-89.0895,"lo2":-89.0444,"dy":0.0017,"dx":0.0017,"nx":28,"ny":28,"refTime":"2025-08-02T09:00:00:Z","depth":0,"parameterNumber":3,"parameterNumberName":"V-component_of_WINDS"},"data":[0,0,0,0,0,0,0,0,0,0,0,0,0,0,0,0,0,0,0,0,0,0,0,0,0,0,0,0,0,0,0,0,0,0,0,0,0,0,0,0,0,0,0,0,0,0,0,0,0,0,0,0,0,0,0,0,0,0,-3.4063,-3.4063,0,-3.412,-3.412,-3.4121,-3.4058,-3.4055,-3.4053,-3.4051,-3.4105,-3.4108,-3.4112,0,0,0,0,0,0,0,0,0,0,0,0,0,-3.3894,-3.3898,-3.4063,-3.4063,-3.4064,-3.4119,-3.412,-3.4121,-3.4058,-3.4055,-3.4052,-3.405,-3.4103,-3.4108,-3.4112,0,0,0,0,0,0,0,0,0,0,0,0,0,-3.3961,-3.3899,-3.4063,-3.404,-3.4038,-3.4119,-3.412,-3.4121,-3.4059,-3.4055,-3.4052,-3.4048,-3.4102,-3.4107,-3.4113,-3.4218,0,0,-3.4129,-3.4132,0,0,0,0,0,0,0,0,-3.3957,-3.3967,-3.4042,-3.4041,-3.404,-3.4078,-3.4081,-3.4153,-3.406,-3.4051,-3.4051,-3.4047,-3.4098,-3.4104,-3.4122,-3.422,-3.4223,-3.413,-3.4133,-3.4136,-3.4137,0,0,0,0,0,0,0,-3.3953,-3.3964,-3.4085,-3.4043,-3.4042,-3.4025,-3.403,-3.4094,-3.4094,-3.4051,-3.4047,-3.4055,-3.4097,-3.4117,-3.4123,-3.4224,-3.413,-3.4135,-3.4138,-3.414,-3.4409,-3.4413,0,0,0,0,0,0,-3.3951,-3.3961,-3.4083,-3.4087,-3.3989,-3.4031,-3.4037,-3.4069,-3.4093,-3.4093,-3.4058,-3.4052,-3.4109,-3.4117,-3.4125,-3.4249,-3.4135,-3.4141,-3.4144,-3.4406,-3.441,-3.4414,0,0,0,0,0,0,-3.3948,-3.3963,-3.4081,-3.4023,-3.4036,-3.4037,-3.4074,-3.4072,-3.4092,-3.4098,-3.4097,-3.4079,-3.4107,-3.4117,-3.4195,-3.425,-3.4143,-3.4148,-3.4401,-3.4407,-3.4412,-3.4498,0,0,0,0,0,0,-3.3944,-3.3962,-3.4004,-3.4024,-3.404,-3.4152,-3.4078,-3.4076,-3.4103,-3.4095,-3.4117,-3.4118,-3.4105,-3.4187,-3.4201,-3.4255,-3.4152,-3.4396,-3.4404,-3.4411,-3.4491,-3.4506,-3.452,0,0,0,0,0,-3.3938,-3.4025,-3.4006,-3.4021,-3.4092,-3.4156,-3.4164,-3.4149,-3.4107,-3.4148,-3.4151,-3.4117,-3.4242,-3.4196,-3.421,-3.4267,-3.4393,-3.4402,-3.441,-3.4484,-3.4503,-3.4519,0,0,0,0,0,0,-3.4009,-3.4027,-3.4006,-3.4103,-3.4129,-3.4145,-3.4196,-3.417,-3.4207,-3.4198,-3.4177,-3.4182,-3.4265,-3.4274,-3.4223,-3.437,-3.431,-3.4322,-3.4361,-3.438,-3.4394,-3.439,-3.4157,0,0,0,0,0,-3.4036,-3.4088,-3.41,-3.4184,-3.4198,-3.4195,-3.4222,-3.4209,-3.4234,-3.4244,-3.4252,-3.4277,-3.4321,-3.4351,-3.4392,-3.4491,-3.4494,-3.4538,-3.4552,-3.4564,-3.4575,-3.4627,-3.4646,-3.4443,-3.4443,-3.4443,0,0,-3.4092,-3.4109,-3.4143,-3.4199,-3.4217,-3.427,-3.4205,-3.4263,-3.4301,-3.4252,-3.4327,-3.4334,-3.4359,-3.4448,-3.4488,-3.4458,-3.4631,-3.4575,-3.4585,-3.4589,-3.4637,-3.4657,-3.4674,-3.4449,-3.4448,-3.4447,0,0,-3.4222,-3.424,-3.4312,-3.4331,-3.436,-3.4357,-3.4374,-3.4395,-3.4398,-3.4473,-3.4437,-3.4481,-3.4558,-3.4578,-3.4598,-3.4734,-3.4703,-3.4747,-3.4824,-3.4874,-3.489,-3.4904,-3.4952,-3.4969,-3.4758,-3.4758,-3.4758,0,-3.4288,-3.4368,-3.4351,-3.4413,-3.4438,-3.4397,-3.4468,-3.4487,-3.4527,-3.4545,-3.4511,-3.4607,-3.4621,-3.4714,-3.4747,-3.4765,-3.4782,-3.4745,-3.489,-3.4904,-3.4916,-3.4961,-3.498,-3.4763,-3.4763,-3.4762,-3.4762,0,-3.4446,-3.4502,-3.4556,-3.4597,-3.4629,-3.4695,-3.4687,-3.472,-3.4703,-3.4703,-3.4779,-3.4795,-3.4838,-3.4859,-3.4843,-3.4949,-3.4929,-3.4893,-3.4833,-3.4941,-3.4983,-3.5,-3.4771,-3.4769,-3.4767,-3.4766,0,0,-3.4623,-3.4654,-3.4674,-3.4692,-3.472,-3.4762,-3.4825,-3.4869,-3.4897,-3.4926,-3.4977,-3.5044,-3.501,-3.5033,-3.5018,-3.5063,-3.5168,-3.5021,-3.5021,-3.5047,-3.5285,-3.5312,-3.5332,-3.5148,-3.5152,-3.5154,-3.5283,0,-3.4752,-3.4864,-3.4851,-3.4956,-3.5007,-3.4968,-3.5022,-3.5045,-3.5047,-3.5088,-3.5089,-3.5136,-3.5089,-3.5102,-3.5144,-3.5147,-3.5216,-3.5137,-3.5195,-3.5197,-3.5189,-3.5354,-3.5383,-3.5504,-3.5299,-3.5302,-3.5304,0,-3.4918,-3.4954,-3.5066,-3.5086,-3.5106,-3.5156,-3.5194,-3.5235,-3.5259,-3.5256,-3.5282,-3.5259,-3.532,-3.5259,-3.5343,-3.529,-3.5312,-3.5317,-3.5321,-3.5325,-3.5257,-3.5362,-3.5542,-3.556,-3.533,-3.5327,-3.5326,0,-3.5035,-3.5111,-3.5187,-3.5204,-3.5229,-3.5264,-3.5276,-3.5297,-3.5323,-3.5356,-3.5373,-3.5412,-3.5434,-3.5464,-3.5452,-3.5408,-3.5537,-3.5475,-3.5536,-3.5536,-3.5564,-3.5563,-3.5749,-3.558,-3.558,-3.5579,-3.5579,0,-3.518,-3.525,-3.524,-3.5287,-3.5363,-3.5346,-3.5421,-3.5428,-3.5446,-3.5492,-3.546,-3.5504,-3.5485,-3.5527,-3.5518,-3.5588,-3.5598,-3.5596,-3.5593,-3.5599,-3.5599,-3.5613,-3.5604,-3.5584,-3.5583,-3.5582,-3.5581,0,-3.5323,-3.532,-3.54,-3.5417,-3.5423,-3.5479,-3.5492,-3.5535,-3.5534,-3.5593,-3.5606,-3.5604,-3.5651,-3.5642,-3.5694,-3.5688,-3.5775,-3.5762,-3.5768,-3.5765,-3.5826,-3.582,-3.6027,-3.6053,-3.5868,-3.587,-3.5871,0,-3.5416,-3.5469,-3.5492,-3.5522,-3.5537,-3.5584,-3.5612,-3.5596,-3.5626,-3.5656,-3.5695,-3.574,-3.5776,-3.5853,-3.5855,-3.5894,-3.5881,-3.5951,-3.5887,-3.5891,-3.5881,-3.5878,-3.5883,-3.5964,-3.5966,-3.5968,-3.5969,0,-3.5582,-3.5577,-3.5619,-3.566,-3.5694,-3.5725,-3.5753,-3.5778,-3.5765,-3.5799,-3.5848,-3.5876,-3.5929,-3.5974,-3.601,-3.602,-3.5992,-3.5989,-3.6005,-3.6012,-3.6013,-3.6013,-3.5802,-3.5985,-3.5983,-3.5982,-3.5981,-3.598,-3.5702,-3.5747,-3.577,-3.5817,-3.5837,-3.5863,-3.5905,-3.5909,-3.595,-3.5993,-3.5981,-3.6037,-3.6057,-3.6104,-3.6118,-3.616,-3.6133,-3.6157,-3.6163,-3.6169,-3.6176,-3.6007,-3.6166,-3.6166,-3.6165,-3.6165,-3.6165,0,-3.5865,-3.5878,-3.5922,-3.5962,-3.5999,-3.5971,-3.6,-3.6032,-3.6081,-3.6104,-3.6139,-3.6195,-3.6238,-3.6243,-3.6283,-3.6315,-3.6304,-3.6326,-3.6324,-3.6326,-3.6197,-3.6179,-3.6335,-3.6335,-3.6335,-3.6335,-3.6335,-3.6335,-3.5955,-3.6029,-3.6027,-3.6109,-3.6121,-3.6176,-3.6195,-3.6219,-3.6236,-3.63,-3.6336,-3.634,-3.6355,-3.6396,-3.6433,-3.6434,-3.645,-3.6477,-3.6473,-3.6352,-3.6335,-3.6319,-3.6302,-3.6481,-3.6481,-3.6598,-3.6599,-3.66]}]]